Flag for Ethiopia Weather past 2 weeks in Addis Ababa, Ethiopia

Now
57 °F

Scattered clouds.


Feels Like: 56 °F
Forecast: 55 / 76 °F
Wind: 7 mph from Northwest

Location: Addis Ababa Airport

Current Time: Jul 8, 2015 at 8:35:21 AM

Latest Report: Jul 8, 2015 at 7:00 AM


Visibility: N/A

Pressure: 30.39 "Hg (22.97 "Hg at 2354m altitude)

Humidity: 82%

Dew point: 52 °F

Location of Addis AbabaLocation

Historic Weather in Addis Ababa — Graph

°F

Addis Ababa temperature yesterday

Maximum temperature yesterday: 75 °F (at 2:00 PM)
Minimum temperature yesterday: 59 °F (at 11:00 PM)
Average temperature yesterday: 66 °F

Past Weeks' High & Low Weather Summary

 TemperatureHumidityPressure
High75 °F (Jul 7, 2:00 PM)94% (Jun 23, 8:00 AM)30.48 "Hg (Jun 23, 8:00 AM)
Low55 °F (Jun 23, 7:00 AM)41% (Jul 7, 2:00 PM)30.27 "Hg (Jun 30, 4:00 PM)
Average63 °F71%30.38 "Hg
* Reported Jun 23 7:00 AM — Jul 8 7:00 AM, Addis Ababa, Weather by CustomWeather, © 2015

Note: Actual official high and low records may vary slightly from our data, if they occured in-between our weather recording intervals... More about our weather records

Advertising

Addis Ababa weather history for previous 24 hours

 ConditionsComfort  
Time TempWeatherWind HumidityBarometerVisibility
7:00 AM
Wed, Jul 8
57 °FScattered clouds.7 mph82%30.39 "HgN/A
6:00 AM55 °FPassing clouds.5 mph82%30.36 "HgN/A
5:00 AM57 °FPassing clouds.5 mph82%30.33 "HgN/A
4:00 AM59 °FPassing clouds.7 mph82%30.33 "HgN/A
3:00 AM59 °FPassing clouds.7 mph82%30.33 "HgN/A
2:00 AM57 °FPassing clouds.5 mph88%30.33 "HgN/A
1:00 AM57 °FPassing clouds.5 mph88%30.36 "HgN/A
12:00 AM59 °FPassing clouds.5 mph88%30.36 "HgN/A
11:00 PM
Tue, Jul 7
59 °FPassing clouds.9 mph88%30.36 "HgN/A
10:00 PM61 °FPassing clouds.5 mph83%30.36 "HgN/A
9:00 PM61 °FPassing clouds.5 mph83%30.36 "HgN/A
8:00 PM63 °FPartly cloudy.9 mph77%30.33 "HgN/A
7:00 PM66 °FPartly cloudy.5 mph73%30.33 "HgN/A
6:00 PM66 °FBroken clouds.2 mph73%30.33 "HgN/A
5:00 PM66 °FBroken clouds.7 mph73%30.27 "HgN/A
4:00 PM64 °FPartly sunny.10 mph73%30.30 "HgN/A
3:00 PM70 °FThunderstorms. Partly sunny.7 mph53%30.33 "Hg6 mi
2:00 PM75 °FMild.5 mph41%30.33 "HgN/A
1:00 PM73 °FScattered clouds.9 mph44%30.39 "HgN/A
12:00 PM72 °FScattered clouds.7 mph50%30.39 "HgN/A
11:00 AM68 °FScattered clouds.9 mph53%30.42 "HgN/A
10:00 AM66 °FScattered clouds.9 mph49%30.42 "HgN/A
9:00 AM64 °FScattered clouds.5 mph60%30.42 "HgN/A
8:00 AM61 °FScattered clouds.5 mph72%30.42 "HgN/A
Weather by CustomWeather, © 2015

See weather overviewHow to use our weather pages